Location: �quirre
(50.4736°N, 2.2351°E)
Time: 20:32:36
(UTC+00:00)

ADEOS II - Pass Details

Date: 07 August 2020
Orbit: 799 x 802 km, 98.5° (Epoch: 21 September)

Event Time Altitude Azimuth Distance (km) Brightness Sun altitude
Rises 00:37:56 0° 31° (NNE) 3,322 6.5 -22.6°
Reaches altitude 10° 00:41:50 10° 60° (ENE) 2,384 5.1 -22.5°
Maximum altitude 00:44:01 13° 85° (E) 2,206 4.6 -22.4°
Drops below altitude 10° 00:46:13 10° 109° (ESE) 2,376 4.5 -22.3°
Enters shadow 00:47:26 - 121° (ESE) 2,605 4.6 -22.3°
